Home   Weather   Greenville   Past weeks

Flag for USA Past Weather in Greenville, South Carolina, USA — Yesterday and Last 2 Weeks

Now
88 °F

Sunny.


Feels Like: 92 °F
Forecast: 74 / 92 °F
Wind: 7 mph from West

Location: Greenville Downtown Airport

Current Time: Jul 24, 2017 at 8:52:39 pm

Latest Report: Jul 24, 2017 at 7:53 pm


Visibility: 10 mi

Pressure: 29.95 "Hg

Humidity: 52%

Dew Point: 68 °F

Location of GreenvilleLocation

Past Weather in Greenville — Graph

°F

Greenville Temperature Yesterday

Maximum temperature yesterday: 94 °F (at 1:53 pm)
Minimum temperature yesterday: 76 °F (at 6:12 pm)
Average temperature yesterday: 82 °F

High & Low Weather Summary for the Past Weeks

 TemperatureHumidityPressure
High96 °F (Jul 20, 3:53 pm)91% (Jul 15, 6:53 am)30.19 "Hg (Jul 15, 6:53 am)
Low70 °F (Jul 18, 3:53 am)32% (Jul 20, 4:53 pm)29.85 "Hg (Jul 24, 3:53 am)
Average82 °F67%30.04 "Hg
* Reported Jul 9 6:53 pm — Jul 24 6:53 pm, Greenville. Weather by CustomWeather, © 2017

Note: Actual official high and low records may vary slightly from our data, if they occured in-between our weather recording intervals... More about our weather records

Advertising

Greenville Weather History for the Previous 24 Hours

Scroll right to see more
 ConditionsComfort  
Time TempWeatherWind HumidityBarometerVisibility
6:53 pm
Mon, Jul 24
91 °FSunny.5 mph41%29.93 "Hg10 mi
5:53 pm93 °FSunny.5 mph36%29.92 "Hg10 mi
4:53 pm93 °FSunny.6 mph37%29.91 "Hg10 mi
3:53 pm91 °FSunny.No wind44%29.93 "Hg10 mi
2:53 pm90 °FSunny.3 mph45%29.94 "Hg10 mi
1:53 pm87 °FSunny.3 mph53%29.96 "Hg10 mi
12:53 pm85 °FPartly sunny.5 mph55%29.97 "Hg10 mi
11:53 am86 °FPartly sunny.3 mph53%29.96 "Hg10 mi
10:53 am85 °FSunny.3 mph57%29.96 "Hg10 mi
9:53 am80 °FSunny.No wind71%29.94 "Hg10 mi
8:53 am77 °FPassing clouds.3 mph79%29.94 "Hg10 mi
7:53 am75 °FPartly sunny.3 mph85%29.92 "Hg10 mi
6:53 am74 °FPartly sunny.6 mph88%29.89 "Hg10 mi
6:16 am74 °FPassing clouds.6 mph88%29.91 "Hg10 mi
5:53 am74 °FClear.5 mph88%29.87 "Hg10 mi
4:53 am74 °FClear.3 mph88%29.86 "Hg10 mi
3:53 am76 °FClear.8 mph82%29.85 "Hg10 mi
2:53 am75 °FClear.8 mph88%29.88 "Hg10 mi
1:53 am75 °FClear.9 mph85%29.90 "Hg10 mi
1:08 am75 °FPassing clouds.8 mph85%29.95 "Hg10 mi
12:34 am75 °FPassing clouds.7 mph85%29.95 "Hg10 mi
12:06 am76 °FOvercast.6 mph82%29.97 "Hg10 mi
11:08 pm
Sun, Jul 23
76 °FPassing clouds.No wind82%29.99 "Hg10 mi
9:53 pm76 °FPartly cloudy.9 mph82%29.91 "Hg10 mi
8:53 pm77 °FClear.7 mph77%29.87 "Hg10 mi
Weather by CustomWeather, © 2017

See weather overviewHow to use our weather pages